[[{"header":{"parameterUnit":"m.s-1","parameterCategory":1,"la1":30.2991,"la2":30.254,"lo1":-89.0895,"lo2":-89.0444,"dy":0.0017,"dx":0.0017,"nx":28,"ny":28,"refTime":"2024-04-10T09:00:00:Z","depth":0,"parameterNumber":2,"parameterNumberName":"U-component_of_WINDS"},"data":[0,0,0,0,0,0,0,0,0,0,0,0,0,0,0,0,0,0,0,0,0,0,0,0,0,0,0,0,0,0,0,0,0,0,0,0,0,0,0,0,0,0,0,0,0,0,0,0,0,0,0,0,0,0,0,0,0,0,5.6936,5.6937,0,5.7107,5.7109,5.7111,5.7106,5.7103,5.7101,5.7099,5.7275,5.7282,5.7289,0,0,0,0,0,0,0,0,0,0,0,0,0,5.6607,5.6613,5.6935,5.6937,5.694,5.7107,5.7109,5.7111,5.7106,5.7103,5.71,5.7098,5.7273,5.7281,5.729,0,0,0,0,0,0,0,0,0,0,0,0,0,5.6761,5.6615,5.6935,5.6957,5.6961,5.7106,5.7109,5.7112,5.7107,5.7103,5.71,5.7096,5.727,5.728,5.7291,5.7425,0,0,5.7322,5.7327,0,0,0,0,0,0,0,0,5.6753,5.6774,5.6952,5.6956,5.696,5.7081,5.7058,5.7217,5.7108,5.7051,5.7099,5.7095,5.7214,5.7229,5.7268,5.7434,5.7441,5.7323,5.7329,5.7334,5.7337,0,0,0,0,0,0,0,5.6742,5.6766,5.7003,5.6954,5.696,5.696,5.6978,5.7088,5.715,5.7056,5.7056,5.7076,5.7215,5.7259,5.7273,5.7444,5.7323,5.7332,5.7338,5.7343,5.7733,5.7737,0,0,0,0,0,0,5.6726,5.6757,5.6998,5.7008,5.6846,5.6969,5.6989,5.7046,5.7149,5.7161,5.7079,5.7076,5.7243,5.726,5.7279,5.7446,5.7334,5.7344,5.7349,5.7729,5.7734,5.7739,0,0,0,0,0,0,5.6719,5.6748,5.6991,5.6883,5.6914,5.6978,5.7043,5.7051,5.7094,5.7167,5.7178,5.7112,5.724,5.7264,5.739,5.7452,5.7348,5.7358,5.7724,5.7731,5.7736,5.778,0,0,0,0,0,0,5.671,5.6745,5.6796,5.6884,5.692,5.7098,5.7046,5.7057,5.7112,5.7109,5.72,5.7212,5.724,5.7375,5.74,5.7465,5.7366,5.7719,5.7727,5.7734,5.7774,5.7787,5.7799,0,0,0,0,0,5.6698,5.6801,5.6798,5.6827,5.6984,5.7101,5.7122,5.7151,5.7117,5.717,5.7217,5.7209,5.7441,5.7387,5.7416,5.7485,5.7715,5.7725,5.7734,5.7768,5.7785,5.7799,0,0,0,0,0,0,5.6717,5.6812,5.6811,5.6945,5.7015,5.71,5.7167,5.7168,5.7249,5.7243,5.7277,5.7297,5.7424,5.7467,5.7405,5.7623,5.7574,5.759,5.759,5.7607,5.7619,5.7606,5.7374,0,0,0,0,0,5.6737,5.6823,5.6902,5.7013,5.7048,5.7102,5.7154,5.7171,5.7245,5.7275,5.7331,5.7405,5.7495,5.7553,5.7639,5.778,5.7802,5.7842,5.7854,5.7865,5.7878,5.796,5.7979,5.7769,5.7769,5.7769,0,0,5.6778,5.6841,5.6893,5.7018,5.7075,5.7166,5.7127,5.7223,5.7291,5.729,5.7413,5.7457,5.7541,5.7676,5.7738,5.7716,5.7941,5.7877,5.7884,5.7892,5.7971,5.7991,5.8009,5.7776,5.7775,5.7774,0,0,5.6901,5.6956,5.7056,5.7114,5.7201,5.7237,5.7261,5.7347,5.7377,5.7501,5.7503,5.7585,5.7738,5.78,5.7851,5.8002,5.7999,5.8029,5.8095,5.8175,5.8191,5.8206,5.8263,5.8282,5.8042,5.8042,5.8042,0,5.6941,5.7077,5.7107,5.7205,5.7262,5.7266,5.7369,5.7424,5.7535,5.7574,5.7548,5.7743,5.78,5.7951,5.7988,5.8029,5.806,5.8018,5.8186,5.8201,5.8216,5.827,5.8291,5.8045,5.8045,5.8044,5.8044,0,5.7124,5.7219,5.7289,5.7398,5.7462,5.7562,5.7609,5.7671,5.7684,5.7723,5.7851,5.792,5.8023,5.806,5.8072,5.8215,5.8198,5.8179,5.813,5.8239,5.8291,5.8311,5.805,5.8049,5.8048,5.8047,0,0,5.7261,5.7387,5.7413,5.7464,5.7562,5.7636,5.7738,5.7839,5.7893,5.797,5.8058,5.819,5.8174,5.8232,5.8252,5.8321,5.8441,5.8294,5.8297,5.8321,5.8606,5.8621,5.8644,5.844,5.8444,5.8447,5.8599,0,5.7395,5.7575,5.7608,5.7766,5.7856,5.7863,5.7953,5.8024,5.8064,5.8147,5.8192,5.8286,5.8256,5.8292,5.8361,5.8411,5.8499,5.8401,5.8524,5.8528,5.8504,5.8671,5.8686,5.8827,5.862,5.8623,5.8625,0,5.7575,5.7659,5.7826,5.7916,5.7955,5.8034,5.8132,5.821,5.8293,5.8318,5.8385,5.8398,5.8507,5.8454,5.8606,5.8539,5.8592,5.8625,5.8631,5.8644,5.8584,5.869,5.8872,5.8894,5.8657,5.8655,5.8652,0,5.7661,5.7815,5.7937,5.798,5.8087,5.8143,5.8191,5.8269,5.8329,5.8415,5.8455,5.8551,5.8605,5.8681,5.8721,5.8678,5.8872,5.8821,5.8898,5.8897,5.8938,5.8935,5.9132,5.897,5.8969,5.8969,5.8969,0,5.7808,5.7911,5.7977,5.8052,5.8169,5.8206,5.8321,5.8367,5.8438,5.8524,5.8536,5.8616,5.8664,5.8752,5.8785,5.8908,5.8931,5.8956,5.8964,5.8956,5.8953,5.8991,5.8983,5.8975,5.8973,5.8972,5.8971,0,5.7924,5.7972,5.8105,5.8197,5.8222,5.8305,5.8384,5.8458,5.85,5.8608,5.8636,5.8702,5.8807,5.8854,5.8983,5.9005,5.9147,5.9146,5.9119,5.9122,5.9197,5.919,5.9426,5.9461,5.9274,5.9275,5.9277,0,5.8015,5.8094,5.8196,5.8254,5.8304,5.8397,5.8459,5.85,5.8565,5.8667,5.873,5.8835,5.8921,5.9089,5.9149,5.9249,5.9253,5.9329,5.9268,5.9259,5.9257,5.9252,5.9262,5.934,5.9342,5.9343,5.9345,0,5.8173,5.8194,5.8282,5.8381,5.8455,5.8534,5.8612,5.8659,5.8713,5.8786,5.8893,5.8961,5.9094,5.92,5.9304,5.9355,5.9361,5.9364,5.9387,5.938,5.9362,5.9376,5.9151,5.9358,5.9357,5.9356,5.9355,5.9354,5.8281,5.8353,5.8437,5.8537,5.86,5.8674,5.8749,5.8801,5.8891,5.9003,5.9023,5.9138,5.9223,5.9364,5.9419,5.9512,5.9494,5.9527,5.9536,5.9544,5.9549,5.9347,5.9531,5.953,5.953,5.953,5.953,0,5.8441,5.8496,5.8588,5.8697,5.8777,5.8775,5.8862,5.8929,5.903,5.9109,5.9194,5.932,5.9424,5.9494,5.9599,5.966,5.9666,5.9687,5.9683,5.9696,5.9558,5.9528,5.9681,5.9681,5.9681,5.9681,5.9681,5.9681,5.8534,5.8658,5.869,5.8847,5.8902,5.9015,5.9066,5.9135,5.9198,5.9338,5.9424,5.9469,5.9545,5.9657,5.9754,5.9772,5.9811,5.9833,5.9851,5.9721,5.9705,5.969,5.9662,5.9841,5.9841,5.9982,5.9983,5.9984]},{"header":{"parameterUnit":"m.s-1","parameterCategory":1,"la1":30.2991,"la2":30.254,"lo1":-89.0895,"lo2":-89.0444,"dy":0.0017,"dx":0.0017,"nx":28,"ny":28,"refTime":"2024-04-10T09:00:00:Z","depth":0,"parameterNumber":3,"parameterNumberName":"V-component_of_WINDS"},"data":[0,0,0,0,0,0,0,0,0,0,0,0,0,0,0,0,0,0,0,0,0,0,0,0,0,0,0,0,0,0,0,0,0,0,0,0,0,0,0,0,0,0,0,0,0,0,0,0,0,0,0,0,0,0,0,0,0,0,-5.1564,-5.1564,0,-5.1552,-5.1552,-5.1552,-5.1525,-5.1524,-5.1524,-5.1523,-5.1507,-5.1507,-5.1507,0,0,0,0,0,0,0,0,0,0,0,0,0,-5.1559,-5.156,-5.1564,-5.1564,-5.1563,-5.1552,-5.1552,-5.1552,-5.1525,-5.1524,-5.1524,-5.1523,-5.1507,-5.1507,-5.1507,0,0,0,0,0,0,0,0,0,0,0,0,0,-5.1556,-5.156,-5.1564,-5.1549,-5.1547,-5.1552,-5.1552,-5.1552,-5.1525,-5.1524,-5.1523,-5.1523,-5.1507,-5.1507,-5.1507,-5.1524,0,0,-5.1507,-5.1507,0,0,0,0,0,0,0,0,-5.1556,-5.1556,-5.1551,-5.155,-5.1548,-5.1539,-5.1545,-5.1542,-5.1525,-5.1533,-5.1523,-5.1522,-5.1518,-5.1517,-5.1516,-5.1523,-5.1523,-5.1507,-5.1507,-5.1507,-5.1507,0,0,0,0,0,0,0,-5.1556,-5.1556,-5.1559,-5.1551,-5.1549,-5.1542,-5.154,-5.1544,-5.153,-5.1533,-5.1531,-5.153,-5.1517,-5.1516,-5.1516,-5.1522,-5.1507,-5.1507,-5.1507,-5.1507,-5.1545,-5.1546,0,0,0,0,0,0,-5.1559,-5.1557,-5.1559,-5.1559,-5.155,-5.1542,-5.1541,-5.1543,-5.153,-5.1527,-5.1531,-5.1529,-5.1517,-5.1516,-5.1515,-5.1536,-5.1507,-5.1507,-5.1507,-5.1544,-5.1545,-5.1546,0,0,0,0,0,0,-5.1559,-5.156,-5.156,-5.1557,-5.1557,-5.1543,-5.1546,-5.1543,-5.1543,-5.1529,-5.1526,-5.1533,-5.1516,-5.1515,-5.1523,-5.1535,-5.1507,-5.1507,-5.1543,-5.1544,-5.1545,-5.1576,0,0,0,0,0,0,-5.1559,-5.156,-5.1567,-5.1558,-5.1557,-5.1568,-5.1547,-5.1543,-5.1544,-5.1541,-5.153,-5.1527,-5.1515,-5.1523,-5.1523,-5.1534,-5.1508,-5.1541,-5.1543,-5.1545,-5.1574,-5.1578,-5.1582,0,0,0,0,0,-5.1559,-5.1574,-5.1567,-5.1568,-5.1565,-5.1569,-5.1569,-5.1556,-5.1545,-5.1551,-5.1543,-5.1528,-5.1534,-5.1524,-5.1524,-5.1535,-5.1541,-5.1543,-5.1545,-5.1572,-5.1577,-5.1582,0,0,0,0,0,0,-5.1582,-5.1572,-5.1565,-5.1577,-5.1575,-5.1565,-5.1572,-5.1562,-5.156,-5.1558,-5.154,-5.1538,-5.1549,-5.1543,-5.1532,-5.1552,-5.1535,-5.1537,-5.1555,-5.156,-5.1565,-5.1565,-5.1508,0,0,0,0,0,-5.1589,-5.1595,-5.1585,-5.1597,-5.1597,-5.1585,-5.1586,-5.1577,-5.1573,-5.1571,-5.1562,-5.1558,-5.1559,-5.1559,-5.1559,-5.1573,-5.1571,-5.1581,-5.1586,-5.1589,-5.1591,-5.1599,-5.1604,-5.1553,-5.1553,-5.1553,0,0,-5.1603,-5.1598,-5.1602,-5.1602,-5.1599,-5.1604,-5.1584,-5.1589,-5.1593,-5.1571,-5.1578,-5.1573,-5.1566,-5.1578,-5.1582,-5.1573,-5.1605,-5.1592,-5.1595,-5.1594,-5.1601,-5.1606,-5.1611,-5.1554,-5.1554,-5.1554,0,0,-5.163,-5.1627,-5.1638,-5.1636,-5.1633,-5.1625,-5.1628,-5.1621,-5.1617,-5.1625,-5.1609,-5.1612,-5.1614,-5.1611,-5.1609,-5.164,-5.1626,-5.164,-5.1661,-5.1669,-5.1673,-5.1676,-5.1687,-5.1692,-5.1642,-5.1642,-5.1642,0,-5.1647,-5.1655,-5.1644,-5.1652,-5.1653,-5.1636,-5.1647,-5.1645,-5.1641,-5.1641,-5.1632,-5.1635,-5.163,-5.1641,-5.1649,-5.1648,-5.1651,-5.164,-5.1674,-5.1677,-5.168,-5.169,-5.1694,-5.1644,-5.1644,-5.1643,-5.1643,0,-5.1676,-5.1682,-5.1691,-5.1691,-5.1692,-5.1701,-5.1691,-5.1694,-5.1686,-5.168,-5.1689,-5.1682,-5.1682,-5.1684,-5.1674,-5.1694,-5.1689,-5.1677,-5.1659,-5.1687,-5.1696,-5.17,-5.1646,-5.1646,-5.1645,-5.1645,0,0,-5.1714,-5.1711,-5.1714,-5.1715,-5.1711,-5.1715,-5.1724,-5.1726,-5.1729,-5.1727,-5.1734,-5.1738,-5.1728,-5.1726,-5.1717,-5.1724,-5.175,-5.1711,-5.1711,-5.1718,-5.1772,-5.178,-5.1785,-5.1742,-5.1742,-5.1743,-5.1772,0,-5.174,-5.1756,-5.1748,-5.1765,-5.1771,-5.1757,-5.1765,-5.1763,-5.1759,-5.1762,-5.1756,-5.176,-5.1746,-5.1745,-5.1752,-5.1745,-5.176,-5.1743,-5.1747,-5.1747,-5.1748,-5.179,-5.1798,-5.1826,-5.1776,-5.1776,-5.1777,0,-5.1772,-5.1775,-5.1793,-5.1791,-5.1793,-5.18,-5.1802,-5.1806,-5.1805,-5.1801,-5.1801,-5.1791,-5.1799,-5.1783,-5.1794,-5.1783,-5.1784,-5.1781,-5.1782,-5.1781,-5.1763,-5.1789,-5.1835,-5.1839,-5.1783,-5.1782,-5.1782,0,-5.1798,-5.1807,-5.1819,-5.182,-5.1817,-5.1823,-5.1822,-5.182,-5.1823,-5.1824,-5.1825,-5.1827,-5.1828,-5.183,-5.182,-5.1809,-5.1833,-5.1815,-5.1829,-5.1829,-5.1833,-5.1833,-5.1879,-5.1835,-5.1835,-5.1835,-5.1835,0,-5.1827,-5.1839,-5.1831,-5.1839,-5.1852,-5.1843,-5.1855,-5.1853,-5.1852,-5.1858,-5.1846,-5.1852,-5.184,-5.1844,-5.1837,-5.1848,-5.1848,-5.1844,-5.1842,-5.1845,-5.1846,-5.1845,-5.1842,-5.1836,-5.1836,-5.1836,-5.1836,0,-5.1858,-5.1854,-5.1866,-5.1865,-5.1865,-5.1874,-5.1872,-5.1879,-5.1875,-5.1883,-5.1884,-5.1877,-5.1883,-5.1874,-5.1877,-5.1872,-5.1888,-5.1882,-5.1889,-5.1887,-5.1901,-5.19,-5.1947,-5.1953,-5.1907,-5.1907,-5.1908,0,-5.1876,-5.1886,-5.1886,-5.1891,-5.1891,-5.1898,-5.1901,-5.1894,-5.1897,-5.1899,-5.1905,-5.191,-5.1913,-5.1922,-5.1917,-5.192,-5.1914,-5.1931,-5.1914,-5.1918,-5.1914,-5.1914,-5.1915,-5.1934,-5.1934,-5.1935,-5.1935,0,-5.191,-5.1908,-5.1914,-5.192,-5.1925,-5.1929,-5.1932,-5.1936,-5.1928,-5.1933,-5.1939,-5.1942,-5.1948,-5.1953,-5.1955,-5.1953,-5.1943,-5.1941,-5.1944,-5.1947,-5.195,-5.1949,-5.1897,-5.1939,-5.1939,-5.1939,-5.1938,-5.1938,-5.1935,-5.1943,-5.1945,-5.1953,-5.1955,-5.1959,-5.1966,-5.1964,-5.197,-5.1975,-5.197,-5.1978,-5.1978,-5.1981,-5.1981,-5.1987,-5.1979,-5.1984,-5.1985,-5.1986,-5.1988,-5.1951,-5.1987,-5.1987,-5.1987,-5.1987,-5.1987,0,-5.1967,-5.1969,-5.1976,-5.1982,-5.1989,-5.1982,-5.1985,-5.199,-5.1999,-5.2,-5.2005,-5.2014,-5.2019,-5.2016,-5.202,-5.2026,-5.2021,-5.2027,-5.2026,-5.2026,-5.1994,-5.1991,-5.2031,-5.2031,-5.2031,-5.2031,-5.2031,-5.2031,-5.1985,-5.1999,-5.1998,-5.2013,-5.2014,-5.2024,-5.2027,-5.203,-5.2032,-5.2043,-5.2048,-5.2047,-5.2047,-5.2052,-5.2057,-5.2056,-5.2058,-5.2065,-5.2062,-5.2032,-5.2028,-5.2024,-5.2021,-5.2066,-5.2066,-5.2093,-5.2093,-5.2094]}]]